DW0937 Weather Reports


Display with metric or nautical units.
time (UTC)temp
F
wind
direction
speed
MPH
gust
MPH
rain 1hr
in
rain 24hr
in
rain mn
in
humidity
%
barometer
mb
20260507164602 52 295 1.0 4.0 0.00 0.00 0.00 35 1011.3
20260507164102 51 320 1.0 4.0 0.00 0.00 0.00 29 1011.4
20260507163831 52 9 1.0 4.0 0.00 0.00 0.00 32 1011.4
20260507163559 52 302 1.0 6.0 0.00 0.00 0.00 32 1011.4
20260507162600 52 322 0.0 6.0 0.00 0.00 0.00 33 1011.4
20260507162058 52 320 0.0 2.0 0.00 0.00 0.00 35 1011.4
20260507161559 52 96 0.0 3.0 0.00 0.00 0.00 34 1011.5
20260507161058 51 20 1.0 6.0 0.00 0.00 0.00 32 1011.6
20260507160823 50 24 2.0 6.0 0.00 0.00 0.00 34 1011.5
20260507160053 51 296 2.0 5.0 0.00 0.00 0.00 33 1011.5
20260507155545 51 338 1.0 5.0 0.00 0.00 0.00 35 1011.5
20260507155047 50 219 1.0 4.0 0.00 0.00 0.00 39 1011.5
20260507154544 50 340 1.0 4.0 0.00 0.00 0.00 37 1011.5
20260507154044 50 120 1.0 3.0 0.00 0.00 0.00 45 1011.5
20260507153544 49 126 1.0 5.0 0.00 0.00 0.00 39 1011.6
20260507153043 49 323 1.0 5.0 0.00 0.00 0.00 38 1011.6
20260507152808 49 0 1.0 4.0 0.00 0.00 0.00 37 1011.6
20260507152300 49 299 0.0 2.0 0.00 0.00 0.00 43 1011.6
20260507151537 49 343 0.0 4.0 0.00 0.00 0.00 40 1011.7
20260507151039 49 242 1.0 4.0 0.00 0.00 0.00 42 1011.6
20260507150538 49 125 1.0 3.0 0.00 0.00 0.00 43 1011.6
20260507150038 49 146 1.0 3.0 0.00 0.00 0.00 45 1011.6
20260507145538 49 262 0.0 3.0 0.00 0.00 0.00 42 1011.6
20260507145037 48 265 1.0 4.0 0.00 0.00 0.00 44 1011.7
20260507144537 48 265 1.0 4.0 0.00 0.00 0.00 43 1011.7
20260507144038 48 264 1.0 4.0 0.00 0.00 0.00 45 1011.8
20260507143806 48 312 0.0 3.0 0.00 0.00 0.00 44 1011.7
20260507143038 48 220 1.0 3.0 0.00 0.00 0.00 46 1011.7
20260507142538 47 248 1.0 3.0 0.00 0.00 0.00 45 1011.8
20260507142037 46 323 0.0 2.0 0.00 0.00 0.00 47 1011.8
20260507141539 46 350 1.0 5.0 0.00 0.00 0.00 50 1011.9
20260507141039 46 334 1.0 5.0 0.00 0.00 0.00 48 1011.9
20260507140536 46 309 1.0 4.0 0.00 0.00 0.00 52 1011.9
20260507140036 45 213 1.0 4.0 0.00 0.00 0.00 51 1011.9
20260507135800 45 0 0.0 3.0 0.00 0.00 0.00 51 1012.0
20260507135036 45 355 1.0 3.0 0.00 0.00 0.00 52 1012.0
20260507134753 45 269 1.0 3.0 0.00 0.00 0.00 56 1012.0
20260507134036 44 246 0.0 3.0 0.00 0.00 0.00 56 1012.0
20260507133535 44 238 0.0 3.0 0.00 0.00 0.00 60 1012.0
20260507133037 43 237 0.0 3.0 0.00 0.00 0.00 60 1012.0
20260507132735 42 244 0.0 2.0 0.00 0.00 0.00 65 1012.1
20260507132625 43 244 0.0 2.0 0.00 0.00 0.00 64 1012.1
20260507131536 41 240 0.0 0.0 0.00 0.00 0.00 71 1012.1
20260507131036 38 234 0.0 0.0 0.00 0.00 0.00 79 1012.1
20260507130755 37 234 0.0 0.0 0.00 0.00 0.00 80 1012.1
20260507130037 36 234 0.0 0.0 0.00 0.00 0.00 82 1012.1
20260507125535 36 234 0.0 0.0 0.00 0.00 0.00 83 1012.1
20260507125037 35 234 0.0 0.0 0.00 0.00 0.00 84 1012.2
20260507124535 35 234 0.0 0.0 0.00 0.00 0.00 84 1012.2
20260507124036 34 234 0.0 0.0 0.00 0.00 0.00 85 1012.2
20260507123536 34 234 0.0 0.0 0.00 0.00 0.00 85 1012.2
20260507123036 33 234 0.0 0.0 0.00 0.00 0.00 85 1012.3
20260507122536 33 234 0.0 0.0 0.00 0.00 0.00 85 1012.3
20260507122035 33 234 0.0 0.0 0.00 0.00 0.00 85 1012.3
20260507121757 33 234 0.0 0.0 0.00 0.00 0.00 85 1012.3
20260507121529 32 234 0.0 0.0 0.00 0.00 0.00 85 1012.3
20260507120531 32 234 0.0 0.0 0.00 0.00 0.00 85 1012.3
20260507120031 32 234 0.0 0.0 0.00 0.00 0.00 84 1012.3
20260507115529 32 235 0.0 0.0 0.00 0.00 0.00 84 1012.3
20260507115027 32 235 0.0 0.0 0.00 0.00 0.00 84 1012.3
20260507114528 32 235 0.0 0.0 0.00 0.00 0.00 84 1012.2
20260507114025 32 235 0.0 0.0 0.00 0.00 0.00 83 1012.2
20260507113523 32 235 0.0 0.0 0.00 0.00 0.00 83 1012.2
20260507113023 32 235 0.0 0.0 0.00 0.00 0.00 83 1012.1
20260507112519 32 235 0.0 0.0 0.00 0.00 0.00 83 1012.1
20260507112018 32 235 0.0 0.0 0.00 0.00 0.00 83 1012.1
20260507111518 32 235 0.0 0.0 0.00 0.00 0.00 83 1012.1
20260507111241 32 235 0.0 0.0 0.00 0.00 0.00 83 1012.1
20260507110738 32 235 0.0 0.0 0.00 0.00 0.00 83 1012.1
20260507110016 32 235 0.0 0.0 0.00 0.00 0.00 83 1012.2
20260507105514 32 235 0.0 0.0 0.00 0.00 0.00 83 1012.1
20260507105013 32 235 0.0 0.0 0.00 0.00 0.00 82 1012.2
20260507104513 32 235 0.0 0.0 0.00 0.00 0.00 82 1012.1
20260507104014 32 235 0.0 0.0 0.00 0.00 0.00 82 1012.1
20260507103513 32 235 0.0 0.0 0.00 0.00 0.00 82 1012.1
20260507103014 32 235 0.0 0.0 0.00 0.00 0.00 82 1012.1
20260507102736 32 235 0.0 0.0 0.00 0.00 0.00 81 1012.2
20260507102012 32 235 0.0 0.0 0.00 0.00 0.00 81 1012.1
20260507101509 32 235 0.0 0.0 0.00 0.00 0.00 81 1012.2
20260507101010 33 235 0.0 0.0 0.00 0.00 0.00 81 1012.2
20260507100509 33 235 0.0 0.0 0.00 0.00 0.00 81 1012.2
20260507100007 33 235 0.0 0.0 0.00 0.00 0.00 81 1012.1
20260507095505 33 235 0.0 0.0 0.00 0.00 0.00 80 1012.2
20260507095223 33 235 0.0 0.0 0.00 0.00 0.00 80 1012.3
20260507094502 33 235 0.0 0.0 0.00 0.00 0.00 80 1012.2
20260507094000 33 235 0.0 0.0 0.00 0.00 0.00 79 1012.3
20260507093455 33 235 0.0 0.0 0.00 0.00 0.00 79 1012.3
20260507093233 33 235 0.0 0.0 0.00 0.00 0.00 79 1012.4
20260507092450 33 235 0.0 0.0 0.00 0.00 0.00 78 1012.3
20260507091945 33 254 0.0 0.0 0.00 0.00 0.00 78 1012.3
20260507091715 33 254 0.0 0.0 0.00 0.00 0.00 78 1012.3
20260507090947 33 254 0.0 0.0 0.00 0.00 0.00 78 1012.2
20260507090443 34 254 0.0 0.0 0.00 0.00 0.00 77 1012.3
20260507085941 34 254 0.0 0.0 0.00 0.00 0.00 77 1012.3
20260507085441 34 254 0.0 0.0 0.00 0.00 0.00 77 1012.2
20260507084942 34 254 0.0 0.0 0.00 0.00 0.00 76 1012.2
20260507084441 34 255 0.0 0.0 0.00 0.00 0.00 76 1012.2
20260507083941 34 255 0.0 0.0 0.00 0.00 0.00 76 1012.2
20260507083439 34 255 0.0 1.0 0.00 0.00 0.00 76 1012.2
20260507082937 34 255 0.0 1.0 0.00 0.00 0.00 76 1012.3
20260507082435 34 257 0.0 0.0 0.00 0.00 0.00 75 1012.3
20260507081933 34 257 0.0 0.0 0.00 0.00 0.00 75 1012.3
20260507081659 34 257 0.0 0.0 0.00 0.00 0.00 75 1012.3
20260507080930 34 257 0.0 0.0 0.00 0.00 0.00 74 1012.3
20260507080430 34 257 0.0 0.0 0.00 0.00 0.00 74 1012.3
20260507075925 35 257 0.0 0.0 0.00 0.00 0.00 74 1012.4
20260507075420 35 257 0.0 0.0 0.00 0.00 0.00 73 1012.3
20260507074921 35 257 0.0 0.0 0.00 0.00 0.00 73 1012.3
20260507074418 35 257 0.0 0.0 0.00 0.00 0.00 72 1012.4
20260507073917 35 257 0.0 0.0 0.00 0.00 0.00 72 1012.4
20260507073642 35 257 0.0 0.0 0.00 0.00 0.00 72 1012.4
20260507072915 35 257 0.0 0.0 0.00 0.00 0.00 72 1012.4
20260507072854 36 257 0.0 0.0 0.00 0.00 0.00 72 1012.5
20260507071912 36 257 0.0 0.0 0.00 0.00 0.00 71 1012.5
20260507071633 36 257 0.0 0.0 0.00 0.00 0.00 71 1012.6
20260507070907 36 257 0.0 0.0 0.00 0.00 0.00 71 1012.6
20260507070405 36 257 0.0 0.0 0.00 0.00 0.00 70 1012.7
20260507065903 37 257 0.0 0.0 0.00 0.00 0.00 70 1012.7
20260507065403 37 257 0.0 0.0 0.00 0.00 0.00 69 1012.8
20260507064859 37 257 0.0 0.0 0.00 0.00 0.00 69 1012.8
20260507064358 37 257 0.0 0.0 0.00 0.00 0.00 69 1012.9
20260507063856 37 257 0.0 0.0 0.00 0.00 0.00 69 1012.9
20260507063354 37 257 0.0 0.0 0.00 0.00 0.00 69 1012.9
20260507062854 37 257 0.0 0.0 0.00 0.00 0.00 68 1012.9
20260507062351 38 257 0.0 0.0 0.00 0.00 0.00 68 1013.0
20260507062113 38 257 0.0 0.0 0.00 0.00 0.00 67 1013.0
20260507061350 38 257 0.0 0.0 0.00 0.00 0.00 66 1013.0
20260507060849 38 257 0.0 0.0 0.00 0.00 0.00 65 1013.0
20260507060606 38 257 0.0 0.0 0.00 0.00 0.00 65 1013.0
20260507055844 38 257 0.0 0.0 0.00 0.00 0.00 64 1013.1
20260507055343 38 257 0.0 0.0 0.00 0.00 0.00 64 1013.1
20260507054842 38 257 0.0 0.0 0.00 0.00 0.00 63 1013.1
20260507054559 38 257 0.0 0.0 0.00 0.00 0.00 63 1013.2
20260507053837 39 257 0.0 0.0 0.00 0.00 0.00 63 1013.1
20260507053335 39 257 0.0 0.0 0.00 0.00 0.00 63 1013.1
20260507052835 39 258 0.0 0.0 0.00 0.00 0.00 63 1013.1
20260507052550 39 258 0.0 0.0 0.00 0.00 0.00 63 1013.2
20260507051828 39 258 0.0 0.0 0.00 0.00 0.00 64 1013.2
20260507051326 39 258 0.0 0.0 0.00 0.00 0.00 64 1013.2
20260507050828 39 258 0.0 0.0 0.00 0.00 0.00 64 1013.2
20260507050323 39 258 0.0 0.0 0.00 0.00 0.00 64 1013.3
20260507045823 39 257 0.0 0.0 0.00 0.00 0.00 64 1013.3
20260507045319 39 257 0.0 0.0 0.00 0.00 0.00 65 1013.3
20260507044817 39 257 0.0 0.0 0.00 0.00 0.00 64 1013.3
20260507044806 38 257 0.0 0.0 0.00 0.00 0.00 65 1013.4
20260507043817 38 257 0.0 0.0 0.00 0.00 0.00 65 1013.4
20260507043318 38 257 0.0 0.0 0.00 0.00 0.00 65 1013.4
20260507043037 38 257 0.0 0.0 0.00 0.00 0.00 65 1013.5
20260507042317 38 257 0.0 0.0 0.00 0.00 0.00 65 1013.5
20260507041817 38 258 0.0 0.0 0.00 0.00 0.00 65 1013.5
20260507041317 38 258 0.0 0.0 0.00 0.00 0.00 64 1013.6
20260507040818 38 258 0.0 0.0 0.00 0.00 0.00 64 1013.6
20260507040315 38 258 0.0 0.0 0.00 0.00 0.00 64 1013.6
20260507035815 38 258 0.0 0.0 0.00 0.00 0.00 64 1013.6
20260507035315 38 258 0.0 0.0 0.00 0.00 0.00 64 1013.6
20260507034815 38 258 0.0 0.0 0.00 0.00 0.00 63 1013.7
20260507034536 38 258 0.0 0.0 0.00 0.00 0.00 64 1013.7
20260507033816 38 258 0.0 0.0 0.00 0.00 0.00 63 1013.7
20260507033533 38 258 0.0 0.0 0.00 0.00 0.00 63 1013.7
20260507032807 38 258 0.0 0.0 0.00 0.00 0.00 62 1013.7
20260507032307 38 258 0.0 0.0 0.00 0.00 0.00 62 1013.7
20260507031807 38 258 0.0 0.0 0.00 0.00 0.00 62 1013.7
20260507031307 38 258 0.0 0.0 0.00 0.00 0.00 62 1013.9
20260507030807 38 258 0.0 0.0 0.00 0.00 0.00 61 1013.9
20260507030307 39 258 0.0 0.0 0.00 0.00 0.00 60 1013.9
20260507025807 39 258 0.0 0.0 0.00 0.00 0.00 59 1013.9
20260507025742 39 258 0.0 0.0 0.00 0.00 0.00 58 1014.0
20260507024804 39 258 0.0 0.0 0.00 0.00 0.00 57 1014.0
20260507024303 40 258 0.0 0.0 0.00 0.00 0.00 57 1014.0
20260507023804 40 258 0.0 0.0 0.00 0.00 0.00 56 1014.0
20260507023531 40 258 0.0 0.0 0.00 0.00 0.00 56 1014.0
20260507022803 40 258 0.0 0.0 0.00 0.00 0.00 55 1014.0
20260507022528 41 258 0.0 0.0 0.00 0.00 0.00 55 1014.1
20260507021804 41 258 0.0 0.0 0.00 0.00 0.00 54 1014.1
20260507021302 41 258 0.0 0.0 0.00 0.00 0.00 54 1014.1
20260507021028 41 257 0.0 1.0 0.00 0.00 0.00 53 1014.0
20260507020301 42 257 0.0 1.0 0.00 0.00 0.00 52 1014.1
20260507015800 42 258 0.0 1.0 0.00 0.00 0.00 52 1014.0
20260507015258 42 258 0.0 2.0 0.00 0.00 0.00 51 1014.0
20260507014759 42 258 0.0 2.0 0.00 0.00 0.00 51 1014.0
20260507014257 43 258 0.0 3.0 0.00 0.00 0.00 50 1013.9
20260507014235 43 258 0.0 3.0 0.00 0.00 0.00 50 1013.9
20260507013252 43 294 0.0 3.0 0.00 0.00 0.00 50 1013.9
20260507012751 43 274 0.0 2.0 0.00 0.00 0.00 50 1014.0
20260507012251 44 275 0.0 3.0 0.00 0.00 0.00 49 1013.9
20260507011805 44 277 0.0 5.0 0.00 0.00 0.00 48 1013.9
20260507011251 44 234 0.0 5.0 0.00 0.00 0.00 48 1013.9
20260507011238 44 277 0.0 3.0 0.00 0.00 0.00 47 1013.9
20260507010505 45 252 1.0 5.0 0.00 0.00 0.00 47 1013.9
20260507010008 45 248 1.0 5.0 0.00 0.00 0.00 47 1014.0
20260507004742 45 299 0.0 3.0 0.00 0.00 0.00 47 1014.0
20260507004241 45 265 0.0 4.0 0.00 0.00 0.00 48 1014.0
20260507004000 45 259 0.0 4.0 0.00 0.00 0.00 47 1014.0
20260507003239 45 254 0.0 6.0 0.00 0.00 0.00 47 1014.0
20260507002739 45 226 1.0 6.0 0.00 0.00 0.00 47 1014.0
20260507002239 45 290 0.0 4.0 0.00 0.00 0.00 47 1014.1
20260507001739 45 277 0.0 3.0 0.00 0.00 0.00 47 1014.1
20260507001237 45 234 0.0 3.0 0.00 0.00 0.00 47 1014.1
20260507000737 45 308 0.0 4.0 0.00 0.00 0.00 47 1014.1
20260507000236 45 307 0.0 4.0 0.00 0.00 0.00 46 1014.2
20260506235733 45 291 0.0 4.0 0.00 0.00 0.00 46 1014.2
20260506235235 45 295 0.0 3.0 0.00 0.00 0.00 46 1014.1
20260506234734 45 251 0.0 5.0 0.00 0.00 0.00 46 1014.2
20260506234234 45 291 1.0 5.0 0.00 0.00 0.00 46 1014.2
20260506233735 46 302 1.0 5.0 0.00 0.00 0.00 46 1014.3
20260506233232 46 297 1.0 5.0 0.00 0.00 0.00 46 1014.3
20260506232731 46 301 0.0 4.0 0.00 0.00 0.00 46 1014.3
20260506232244 46 278 0.0 5.0 0.00 0.00 0.00 46 1014.3
20260506231730 46 223 1.0 9.0 0.00 0.00 0.00 46 1014.4
20260506231231 46 277 0.0 9.0 0.00 0.00 0.00 45 1014.4
20260506230730 46 281 0.0 4.0 0.00 0.00 0.00 47 1014.3
20260506230228 46 316 1.0 6.0 0.00 0.00 0.00 46 1014.3
20260506225729 46 13 1.0 6.0 0.00 0.00 0.00 46 1014.3
20260506225227 46 310 0.0 3.0 0.00 0.00 0.00 46 1014.4
20260506224727 47 307 0.0 3.0 0.00 0.00 0.00 46 1014.4
20260506224224 46 232 0.0 3.0 0.00 0.00 0.00 47 1014.4
20260506223722 46 307 1.0 3.0 0.00 0.00 0.00 46 1014.4
20260506223220 46 299 1.0 5.0 0.00 0.00 0.00 46 1014.4
20260506222722 46 307 1.0 5.0 0.00 0.00 0.00 46 1014.4
20260506222233 46 335 1.0 3.0 0.00 0.00 0.00 45 1014.4
20260506221719 46 299 0.0 3.0 0.00 0.00 0.00 48 1014.5
20260506221218 46 290 0.0 3.0 0.00 0.00 0.00 46 1014.5
20260506220718 46 296 1.0 5.0 0.00 0.00 0.00 46 1014.6
20260506220658 46 34 1.0 5.0 0.00 0.00 0.00 47 1014.6
20260506215719 46 297 1.0 7.0 0.00 0.00 0.00 46 1014.6
20260506215218 46 262 1.0 8.0 0.00 0.00 0.00 46 1014.7
20260506214720 46 219 1.0 8.0 0.00 0.00 0.00 46 1014.7
20260506214220 46 226 1.0 7.0 0.00 0.00 0.00 46 1014.7
20260506213719 46 290 1.0 9.0 0.00 0.00 0.00 47 1014.7
20260506213218 46 260 1.0 9.0 0.00 0.00 0.00 47 1014.8
20260506212712 46 247 1.0 7.0 0.00 0.00 0.00 47 1014.8
20260506212208 46 280 1.0 6.0 0.00 0.00 0.00 47 1014.8
20260506211709 46 316 1.0 7.0 0.00 0.00 0.00 47 1014.8
20260506211211 45 281 1.0 7.0 0.00 0.00 0.00 48 1014.8
20260506210709 45 11 0.0 4.0 0.00 0.00 0.00 48 1014.9
20260506210210 45 213 1.0 10.0 0.00 0.00 0.00 47 1015.0
20260506205709 45 249 1.0 10.0 0.00 0.00 0.00 49 1015.0
20260506205208 45 275 1.0 6.0 0.00 0.00 0.00 48 1015.1
20260506204707 45 321 1.0 6.0 0.00 0.00 0.00 48 1015.1
20260506204430 46 251 2.0 9.0 0.00 0.00 0.00 48 1015.1
20260506203708 45 295 2.0 9.0 0.00 0.00 0.00 48 1015.1
20260506203208 45 267 1.0 9.0 0.00 0.00 0.00 48 1015.1
20260506202945 45 259 1.0 9.0 0.00 0.00 0.00 48 1015.1
20260506202437 46 224 1.0 13.0 0.00 0.00 0.00 47 1015.2
20260506201708 46 300 1.0 13.0 0.00 0.00 0.00 48 1015.2
20260506201205 45 240 1.0 5.0 0.00 0.00 0.00 49 1015.0
20260506200659 45 311 1.0 6.0 0.00 0.00 0.00 48 1015.2
20260506200157 45 304 1.0 6.0 0.00 0.00 0.00 48 1015.0
20260506195656 45 322 1.0 7.0 0.00 0.00 0.00 49 1015.2
20260506195412 45 313 1.0 7.0 0.00 0.00 0.00 48 1015.2
20260506194653 45 325 1.0 6.0 0.00 0.00 0.00 48 1015.2
20260506194155 45 291 1.0 10.0 0.00 0.00 0.00 48 1015.2
20260506193656 44 238 1.0 10.0 0.00 0.00 0.00 49 1015.2
20260506193155 44 312 1.0 5.0 0.00 0.00 0.00 48 1015.3
20260506192654 44 294 0.0 4.0 0.00 0.00 0.00 49 1015.3
20260506192151 44 355 1.0 9.0 0.00 0.00 0.00 49 1015.3
20260506191650 44 277 2.0 9.0 0.00 0.00 0.00 48 1015.3
20260506191150 44 300 1.0 6.0 0.00 0.00 0.00 48 1015.2
20260506191132 45 307 1.0 5.0 0.00 0.00 0.00 47 1015.3
20260506190147 45 288 1.0 8.0 0.00 0.00 0.00 48 1015.2
20260506185648 45 303 1.0 8.0 0.00 0.00 0.00 48 1015.3
20260506185146 44 249 1.0 5.0 0.00 0.00 0.00 49 1015.2
20260506184644 44 265 1.0 5.0 0.00 0.00 0.00 49 1015.4
20260506184138 44 259 1.0 5.0 0.00 0.00 0.00 51 1015.3
20260506183638 44 300 1.0 10.0 0.00 0.00 0.00 49 1015.3
20260506183138 44 298 1.0 10.0 0.00 0.00 0.00 48 1015.4
20260506182640 44 269 1.0 7.0 0.00 0.00 0.00 49 1015.3
20260506182137 44 344 1.0 6.0 0.00 0.00 0.00 50 1015.3
20260506181636 44 311 2.0 6.0 0.00 0.00 0.00 48 1015.4
20260506181136 44 313 2.0 6.0 0.00 0.00 0.00 48 1015.4
20260506180636 44 306 1.0 5.0 0.00 0.00 0.00 50 1015.4
20260506180137 43 351 1.0 10.0 0.00 0.00 0.00 50 1015.4
20260506175635 43 355 1.0 10.0 0.00 0.00 0.00 50 1015.4
20260506175135 43 305 1.0 9.0 0.00 0.00 0.00 50 1015.5
20260506174634 44 271 2.0 9.0 0.00 0.00 0.00 49 1015.4
20260506174352 44 292 1.0 6.0 0.00 0.00 0.00 49 1015.5
20260506173635 43 306 1.0 5.0 0.00 0.00 0.00 50 1015.5
20260506173134 43 321 1.0 6.0 0.00 0.00 0.00 51 1015.6
20260506172631 42 294 2.0 6.0 0.00 0.00 0.00 51 1015.6
20260506172619 42 328 2.0 9.0 0.00 0.00 0.00 50 1015.6
20260506171630 43 308 2.0 9.0 0.00 0.00 0.00 49 1015.6
20260506171129 43 269 1.0 7.0 0.00 0.00 0.00 49 1015.6
20260506170629 43 269 2.0 7.0 0.00 0.00 0.00 51 1015.7
20260506170354 42 325 2.0 9.0 0.00 0.00 0.00 51 1015.7
20260506165627 43 233 2.0 9.0 0.00 0.00 0.00 50 1015.8
20260506165127 42 319 2.0 6.0 0.00 0.00 0.00 50 1015.8